CW6294 Weather Reports


time (UTC)temp
F
wind
direction
speed
knots
gust
knots
rain 1hr
in
rain 24hr
in
rain mn
in
humidity
%
barometer
mb
20260510105346 56 78 0.0 0.0 0.00 0.00 0.00 100 1010.3
20260510103841 55 78 0.0 0.0 0.00 0.00 0.00 99 1010.1
20260510102315 55 78 0.0 0.0 0.00 0.00 0.00 99 1009.9
20260510100757 56 78 0.0 0.0 0.00 0.00 0.00 99 1009.7
20260510095253 56 78 0.0 0.0 0.00 0.00 0.00 99 1009.6
20260510093746 56 78 0.0 0.0 0.00 0.00 0.00 99 1009.7
20260510092248 56 78 0.0 0.0 0.00 0.00 0.00 99 1009.6
20260510090701 57 78 0.0 0.0 0.00 0.00 0.00 99 1009.5
20260510085156 57 78 0.0 0.0 0.00 0.00 0.00 99 1009.5
20260510083653 56 78 0.0 0.0 0.00 0.00 0.00 98 1009.3
20260510082137 56 78 0.0 0.0 0.00 0.00 0.00 98 1009.0
20260510080634 57 78 0.0 0.0 0.00 0.00 0.00 98 1008.8
20260510075128 58 77 0.0 0.0 0.00 0.00 0.00 97 1008.7
20260510073618 58 77 0.0 0.0 0.00 0.00 0.00 97 1008.5
20260510072112 59 77 0.0 0.0 0.00 0.00 0.00 97 1008.6
20260510070604 59 77 0.0 0.0 0.00 0.00 0.00 96 1008.5
20260510065100 59 77 0.0 0.0 0.00 0.00 0.00 96 1008.3
20260510064252 59 77 0.0 0.0 0.00 0.00 0.00 95 1008.3
20260510062045 60 77 0.0 0.0 0.00 0.00 0.00 95 1008.4
20260510060545 60 77 0.0 0.0 0.00 0.00 0.00 94 1008.3
20260510055044 60 77 0.0 0.0 0.00 0.00 0.00 93 1008.2
20260510053542 62 77 0.0 0.0 0.00 0.00 0.00 91 1008.2
20260510052039 62 77 0.0 0.0 0.00 0.00 0.00 90 1008.3
20260510051226 63 77 0.0 0.0 0.00 0.00 0.00 89 1008.2
20260510044959 63 77 0.0 0.0 0.00 0.00 0.00 89 1008.3
20260510043455 64 77 0.0 0.0 0.00 0.00 0.00 88 1008.3
20260510041947 64 77 0.0 0.0 0.00 0.00 0.00 88 1008.3
20260510040446 64 77 0.0 0.0 0.00 0.00 0.00 88 1008.3
20260510034943 64 77 0.0 0.0 0.00 0.00 0.00 87 1008.3
20260510034104 65 77 0.0 0.0 0.00 0.00 0.00 86 1008.2
20260510031901 65 77 0.0 0.0 0.00 0.00 0.00 85 1008.1
20260510030354 65 77 0.0 0.0 0.00 0.00 0.00 85 1008.2
20260510025546 65 77 0.0 0.0 0.00 0.00 0.00 84 1008.0
20260510024050 66 77 0.0 0.0 0.00 0.00 0.00 83 1007.9
20260510021850 67 77 0.0 0.0 0.00 0.00 0.00 81 1007.9
20260510020347 67 63 0.0 0.0 0.00 0.00 0.00 81 1007.7
20260510014840 67 96 0.0 0.0 0.00 0.00 0.00 80 1007.6
20260510013332 68 72 0.0 0.0 0.00 0.00 0.00 78 1007.3
20260510012521 69 70 0.0 0.0 0.00 0.00 0.00 76 1007.1
20260510010322 69 178 0.0 0.0 0.00 0.00 0.00 74 1006.9
20260510004807 69 178 0.0 0.0 0.00 0.00 0.00 73 1007.0
20260510003307 70 178 0.0 0.0 0.00 0.00 0.00 71 1006.9
20260510001758 71 178 0.0 0.0 0.00 0.00 0.00 70 1006.7
20260510000259 72 178 0.0 0.0 0.00 0.00 0.00 68 1006.6
20260509235442 73 178 0.0 0.0 0.00 0.00 0.00 68 1006.5
20260509233240 73 178 0.0 0.0 0.00 0.00 0.00 67 1006.4
20260509231737 74 182 0.0 0.0 0.00 0.00 0.00 66 1006.4
20260509230914 74 153 0.0 0.0 0.00 0.00 0.00 65 1006.3
20260509225415 74 167 0.0 0.0 0.00 0.00 0.00 65 1006.3
20260509223200 74 139 0.0 0.0 0.00 0.00 0.00 66 1006.4
20260509222351 74 182 0.0 0.9 0.00 0.00 0.00 64 1006.5
20260509220142 75 183 0.0 0.0 0.00 0.00 0.00 64 1006.5
20260509214644 74 140 0.0 0.0 0.00 0.00 0.00 66 1006.3
20260509213819 75 146 1.7 8.7 0.00 0.00 0.00 66 1006.5
20260509211606 75 192 0.9 7.0 0.00 0.00 0.00 65 1006.5
20260509210106 76 174 2.6 8.7 0.00 0.00 0.00 63 1006.4
20260509204606 75 227 1.7 10.4 0.00 0.00 0.00 64 1006.5
20260509203111 76 138 1.7 7.8 0.00 0.00 0.00 63 1006.2
20260509201606 75 170 3.5 9.6 0.00 0.00 0.00 65 1006.4
20260509200108 74 278 2.6 12.2 0.00 0.00 0.00 66 1006.6
20260509194602 74 141 0.0 8.7 0.00 0.00 0.00 68 1006.7
20260509193103 73 158 2.6 8.7 0.00 0.00 0.00 69 1007.1
20260509191602 71 207 0.0 0.9 0.00 0.00 0.00 70 1007.3
20260509184554 71 210 0.0 0.9 0.00 0.00 0.00 70 1007.5
20260509183802 70 168 2.6 10.4 0.00 0.00 0.00 70 1007.8
20260509182253 71 211 2.6 8.7 0.00 0.00 0.00 70 1008.0
20260509180055 71 182 2.6 7.8 0.00 0.00 0.00 69 1008.3
20260509174551 70 190 3.5 10.4 0.00 0.00 0.00 69 1008.4
20260509173050 72 164 2.6 9.6 0.00 0.00 0.00 67 1008.4
20260509171550 71 170 3.5 7.8 0.00 0.00 0.00 69 1008.5
20260509170050 70 192 4.3 9.6 0.00 0.00 0.00 69 1008.4
20260509164551 70 233 3.5 10.4 0.00 0.00 0.00 69 1008.5
20260509163049 69 192 4.3 10.4 0.00 0.00 0.00 70 1008.6
20260509161547 69 175 4.3 10.4 0.00 0.00 0.00 70 1008.6
20260509160046 67 221 3.5 9.6 0.00 0.00 0.00 72 1008.7
20260509154543 67 192 3.5 11.3 0.00 0.00 0.00 72 1009.0
20260509153043 67 209 5.2 12.2 0.00 0.00 0.00 73 1009.0
20260509151543 67 196 6.1 13.9 0.00 0.00 0.00 72 1009.0
20260509150043 66 191 4.3 11.3 0.00 0.00 0.00 73 1009.2
20260509144544 65 150 3.5 10.4 0.00 0.00 0.00 75 1009.5
20260509143045 64 178 2.6 9.6 0.00 0.00 0.00 76 1009.6
20260509141530 63 17 4.3 9.6 0.00 0.00 0.00 77 1009.7
20260509140723 62 227 3.5 9.6 0.00 0.00 0.00 78 1009.7
20260509135224 61 138 2.6 7.8 0.00 0.00 0.00 80 1009.6
20260509133028 60 180 2.6 8.7 0.00 0.00 0.00 80 1009.8
20260509132242 60 149 2.6 7.8 0.00 0.00 0.00 81 1009.7
20260509130029 60 56 3.5 10.4 0.00 0.00 0.00 81 1009.8
20260509124526 60 213 2.6 7.8 0.00 0.00 0.00 80 1009.9
20260509123027 60 251 2.6 7.8 0.00 0.00 0.00 80 1009.8
20260509121521 59 121 2.6 7.0 0.00 0.00 0.00 80 1009.7
20260509120018 59 137 3.5 9.6 0.00 0.00 0.00 80 1009.7
20260509115220 59 175 1.7 8.7 0.00 0.00 0.00 78 1009.7
20260509113708 59 207 0.9 7.8 0.00 0.00 0.00 77 1009.8
20260509111512 59 221 1.7 8.7 0.00 0.00 0.00 76 1009.4
20260509110012 59 142 0.0 0.0 0.00 0.00 0.00 75 1009.5